When you browse on this site, cookies collect data to enhance your experience and personalize the content and advertising you see.
Visit our Privacy Policy to learn more. By continuing to use the site, you agree to this use of cookies and data.
  • In Austria
  • List of Countries
  • For 7 days
  • Water Temperature
  • Weather Map
  • News
  • Weather Widgets
  • user-avatar
    Login

    Hourly Weather Tlaxcoapan

    Today, 19 January, Sunday

    Time Temperature Precipitation Wind Pressure Humidity
    00:00 +14°C° 0.4 mm 1 mps 596 mmHg 87%
    01:00 +14°C° 0.4 mm 1 mps 596 mmHg 89%
    02:00 +14°C° 0.4 mm 2 mps 596 mmHg 90%
    03:00 +14°C° 0.1 mm 2 mps 596 mmHg 90%
    04:00 +14°C° 0.1 mm 2 mps 596 mmHg 91%
    05:00 +14°C° 0.1 mm 2 mps 596 mmHg 91%
    06:00 +14°C° 0.1 mm 2 mps 596 mmHg 88%
    07:00 +14°C° 0.1 mm 2 mps 597 mmHg 86%
    08:00 +14°C° 0.1 mm 2 mps 598 mmHg 83%
    09:00 +16°C° 0.2 mm 2 mps 598 mmHg 77%
    10:00 +17°C° 0.2 mm 3 mps 598 mmHg 71%
    11:00 +18°C° 0.2 mm 3 mps 599 mmHg 65%
    12:00 +17°C° 0.3 mm 4 mps 598 mmHg 66%
    13:00 +16°C° 0.3 mm 5 mps 597 mmHg 67%
    14:00 +16°C° 0.3 mm 5 mps 597 mmHg 68%
    15:00 +15°C° 0.1 mm 5 mps 597 mmHg 71%
    16:00 +14°C° 0.1 mm 4 mps 596 mmHg 74%
    17:00 +13°C° 0.1 mm 4 mps 596 mmHg 77%
    18:00 +12°C° 0.8 mm 4 mps 597 mmHg 81%
    19:00 +12°C° 0.8 mm 3 mps 597 mmHg 85%
    20:00 +11°C° 0.8 mm 3 mps 597 mmHg 89%
    21:00 +12°C° 0.5 mm 2 mps 597 mmHg 89%
    22:00 +12°C° 0.5 mm 2 mps 597 mmHg 89%
    23:00 +12°C° 0.5 mm 2 mps 597 mmHg 89%

    Tomorrow, 20 January, Monday

    Time Temperature Precipitation Wind Pressure Humidity
    00:00 +12°C° 0.3 mm 2 mps 597 mmHg 89%
    01:00 +12°C° 0.3 mm 2 mps 597 mmHg 90%
    02:00 +11°C° 0.3 mm 3 mps 597 mmHg 90%
    03:00 +10°C° 0.8 mm 2 mps 597 mmHg 90%
    04:00 +10°C° 0.8 mm 2 mps 597 mmHg 90%
    05:00 +11°C° 0.8 mm 1 mps 597 mmHg 91%
    06:00 +11°C° 0.7 mm 1 mps 598 mmHg 90%
    07:00 +12°C° 0.7 mm 1 mps 598 mmHg 89%
    08:00 +12°C° 0.7 mm 1 mps 599 mmHg 88%
    09:00 +12°C° 0.2 mm 1 mps 599 mmHg 85%
    10:00 +13°C° 0.2 mm 2 mps 599 mmHg 81%
    11:00 +14°C° 0.2 mm 2 mps 599 mmHg 77%
    12:00 +13°C° 0.1 mm 3 mps 599 mmHg 74%
    13:00 +14°C° 0.1 mm 4 mps 598 mmHg 71%
    14:00 +14°C° 0.1 mm 4 mps 598 mmHg 67%
    15:00 +13°C° 0 mm 4 mps 598 mmHg 70%
    16:00 +13°C° 0 mm 4 mps 597 mmHg 73%
    17:00 +12°C° 0 mm 3 mps 597 mmHg 76%
    18:00 +11°C° 0 mm 3 mps 597 mmHg 80%
    19:00 +10°C° 0 mm 3 mps 597 mmHg 83%
    20:00 +10°C° 0 mm 2 mps 597 mmHg 86%
    21:00 +9°C° 0 mm 2 mps 597 mmHg 87%
    22:00 +10°C° 0 mm 1 mps 597 mmHg 88%
    23:00 +10°C° 0 mm 1 mps 597 mmHg 89%

    Day after tomorrow, 21 January, Tuesday

    Time Temperature Precipitation Wind Pressure Humidity
    00:00 +10°C° 0 mm 1 mps 597 mmHg 88%
    01:00 +10°C° 0 mm 1 mps 597 mmHg 87%
    02:00 +10°C° 0 mm 1 mps 596 mmHg 86%
    03:00 +10°C° 0 mm 1 mps 596 mmHg 85%
    04:00 +10°C° 0 mm 1 mps 596 mmHg 85%
    05:00 +9°C° 0 mm 0 mps 596 mmHg 85%
    06:00 +9°C° 0 mm 0 mps 596 mmHg 82%
    07:00 +11°C° 0 mm 1 mps 597 mmHg 79%
    08:00 +11°C° 0 mm 1 mps 597 mmHg 76%
    09:00 +13°C° 0 mm 1 mps 597 mmHg 68%
    10:00 +14°C° 0 mm 0 mps 598 mmHg 61%
    11:00 +16°C° 0 mm 0 mps 598 mmHg 53%
    12:00 +19°C° 0 mm 1 mps 598 mmHg 49%
    13:00 +19°C° 0 mm 2 mps 598 mmHg 45%
    14:00 +20°C° 0 mm 3 mps 598 mmHg 41%
    15:00 +19°C° 0 mm 3 mps 597 mmHg 48%
    16:00 +18°C° 0 mm 4 mps 596 mmHg 55%
    17:00 +17°C° 0 mm 4 mps 596 mmHg 62%
    18:00 +14°C° 0 mm 3 mps 595 mmHg 69%
    19:00 +14°C° 0 mm 2 mps 595 mmHg 76%
    20:00 +13°C° 0 mm 1 mps 595 mmHg 84%
    21:00 +13°C° 0 mm 1 mps 595 mmHg 84%
    22:00 +12°C° 0 mm 1 mps 595 mmHg 85%
    23:00 +12°C° 0 mm 1 mps 594 mmHg 85%

    22 January, Wednesday

    Time Temperature Precipitation Wind Pressure Humidity
    00:00 +12°C° 0 mm 1 mps 594 mmHg 85%
    01:00 +12°C° 0 mm 1 mps 594 mmHg 84%
    02:00 +12°C° 0 mm 1 mps 593 mmHg 84%
    03:00 +12°C° 0 mm 1 mps 593 mmHg 82%
    04:00 +12°C° 0 mm 1 mps 593 mmHg 81%
    05:00 +11°C° 0 mm 1 mps 593 mmHg 80%
    06:00 +13°C° 0 mm 2 mps 593 mmHg 74%
    07:00 +14°C° 0 mm 2 mps 594 mmHg 68%
    08:00 +15°C° 0 mm 2 mps 595 mmHg 61%
    09:00 +17°C° 0 mm 2 mps 595 mmHg 54%
    10:00 +19°C° 0 mm 2 mps 595 mmHg 46%
    11:00 +21°C° 0 mm 2 mps 596 mmHg 38%
    12:00 +22°C° 0 mm 3 mps 595 mmHg 35%
    13:00 +24°C° 0 mm 3 mps 595 mmHg 32%
    14:00 +25°C° 0 mm 4 mps 595 mmHg 30%
    15:00 +23°C° 0 mm 4 mps 594 mmHg 34%
    16:00 +22°C° 0 mm 4 mps 594 mmHg 38%
    17:00 +20°C° 0 mm 4 mps 594 mmHg 42%
    18:00 +19°C° 0 mm 3 mps 594 mmHg 47%
    19:00 +17°C° 0 mm 2 mps 594 mmHg 52%
    20:00 +16°C° 0 mm 1 mps 594 mmHg 57%
    21:00 +15°C° 0 mm 1 mps 593 mmHg 59%
    22:00 +15°C° 0 mm 1 mps 593 mmHg 61%
    23:00 +14°C° 0 mm 1 mps 593 mmHg 62%

    23 January, Thursday

    Time Temperature Precipitation Wind Pressure Humidity
    00:00 +14°C° 0 mm 1 mps 592 mmHg 63%
    01:00 +14°C° 0 mm 1 mps 592 mmHg 63%
    02:00 +13°C° 0 mm 1 mps 592 mmHg 63%
    03:00 +13°C° 0 mm 1 mps 591 mmHg 65%
    04:00 +12°C° 0 mm 1 mps 591 mmHg 67%
    05:00 +12°C° 0 mm 1 mps 591 mmHg 68%
    06:00 +13°C° 0 mm 1 mps 592 mmHg 64%
    07:00 +14°C° 0 mm 1 mps 593 mmHg 60%
    08:00 +15°C° 0 mm 1 mps 594 mmHg 56%
    09:00 +16°C° 0 mm 1 mps 594 mmHg 49%
    10:00 +18°C° 0 mm 2 mps 595 mmHg 43%
    11:00 +19°C° 0 mm 2 mps 595 mmHg 36%
    12:00 +20°C° 0 mm 3 mps 595 mmHg 35%
    13:00 +20°C° 0 mm 4 mps 594 mmHg 33%
    14:00 +21°C° 0 mm 5 mps 594 mmHg 31%
    15:00 +19°C° 0 mm 5 mps 593 mmHg 40%
    16:00 +16°C° 0 mm 5 mps 593 mmHg 49%
    17:00 +14°C° 0 mm 5 mps 592 mmHg 58%
    18:00 +13°C° 0 mm 4 mps 592 mmHg 63%
    19:00 +13°C° 0 mm 3 mps 592 mmHg 67%
    20:00 +13°C° 0 mm 2 mps 592 mmHg 71%
    21:00 +13°C° 0 mm 1 mps 592 mmHg 70%
    22:00 +13°C° 0 mm 1 mps 592 mmHg 70%
    23:00 +13°C° 0 mm 1 mps 592 mmHg 69%

    24 January, Friday

    Time Temperature Precipitation Wind Pressure Humidity
    00:00 +13°C° 0 mm 1 mps 591 mmHg 71%
    01:00 +12°C° 0 mm 1 mps 591 mmHg 73%
    02:00 +11°C° 0 mm 0 mps 590 mmHg 75%
    03:00 +10°C° 0 mm 0 mps 590 mmHg 76%
    04:00 +10°C° 0 mm 0 mps 590 mmHg 77%
    05:00 +9°C° 0 mm 0 mps 590 mmHg 78%
    06:00 +12°C° 0 mm 1 mps 591 mmHg 72%
    07:00 +13°C° 0 mm 1 mps 592 mmHg 66%
    08:00 +14°C° 0 mm 1 mps 593 mmHg 60%
    09:00 +16°C° 0 mm 1 mps 594 mmHg 52%
    10:00 +18°C° 0 mm 1 mps 594 mmHg 44%
    11:00 +20°C° 0 mm 1 mps 595 mmHg 35%
    12:00 +21°C° 0 mm 1 mps 594 mmHg 32%
    13:00 +22°C° 0 mm 1 mps 594 mmHg 29%
    14:00 +22°C° 0 mm 1 mps 594 mmHg 26%
    15:00 +21°C° 0 mm 2 mps 594 mmHg 29%
    16:00 +20°C° 0 mm 2 mps 594 mmHg 33%
    17:00 +20°C° 0 mm 3 mps 594 mmHg 36%
    18:00 +18°C° 0.1 mm 3 mps 594 mmHg 49%
    19:00 +16°C° 0.1 mm 3 mps 594 mmHg 62%
    20:00 +14°C° 0.1 mm 3 mps 594 mmHg 74%
    21:00 +14°C° 0 mm 2 mps 594 mmHg 78%
    22:00 +13°C° 0 mm 2 mps 593 mmHg 82%
    23:00 +13°C° 0 mm 2 mps 593 mmHg 86%
    Show more